STARLINK-5158 (54055 NORAD) Tracking and Keplerian Element Data

This shows tracking and keplerian element data for the satellite.

Feedback or suggestion? Click here.




ElementValue
Catalog54055
NameSTARLINK-5158
Epoch Orbit130
Epoch Day324.91667824
Epoch Year2022
RAAN354.6829
Inclination53.2173
Eccentricity0.0001461
Argument of Perigee36.8119
Mean Anonmoly327.5736
Mean Motion15.46804125
Decay Rate-0.01198347
L11 54055U 22136E 22324.91667824 -.01198347 00000+0 -25819-1 0 9999
L22 54055 53.2173 354.6829 0001461 36.8119 327.5736 15.46804125 1302



Live tracking and technical data element details for STARLINK-5158 (NORAD 54055). STARLINK-5158 can be tracked NOW for your location showing map with azimuth and elevation plus other details from your city location.







IsCatalogInMostPopularTable: catalog: 54055, numindb: 1
Update: records affected: 1



GetName: 54055 STARLINK-5158

Hit Count: updated at: Mon, 28 Nov 2022 21:46:24 GMT